Vertical_Velocity
-1 -1 -1 -1 -1 -1 -1 -1 -1 -1 -0 -1 -1 -1 -1 -2 0 -0 -0 -8 -1 -2 -2 -5 2 -2 -4 2 -11 -3 24 2 13 -13 20 -2 14 -10 -11 4 1 -9 26 -4 -2
-1 -1 -1 -1 -1 -1 -1 -1 -0 -0 -1 -2 -1 -1 -1 -1 0 -0 -1 -2 -2 -3 -2 -3 16 -5 29 -3 -5 15 1 -3 -14 22 1 -9 -1 0 27 -9 -7 -6 -3 -1 -3
-1 -2 -1 -1 -1 -1 -1 -1 -1 -1 -1 -1 -1 -1 -0 0 2 -5 -1 -1 -2 -2 -3 -2 -3 -5 10 4 -11 -19 -2 -5 20 -22 -14 -14 19 -8 3 6 4 -5 -3 -1 1
-1 -1 -1 -1 -1 -1 -1 -1 -1 -1 -1 -1 -1 -1 1 0 29 -0 -1 -1 -1 -1 -5 -2 6 13 12 30 -13 38 0 -4 -6 -5 1 12 -11 18 -3 -2 -2 -4 -1 -0 -1
-2 -1 -1 -1 -1 -1 -1 -1 -1 -1 -1 -1 -1 -0 0 2 -0 -2 -2 0 -0 -2 -6 7 13 -9 24 -4 -7 26 -1 -4 -4 8 1 -18 5 -7 -1 -3 -2 -3 -4 -2 -4
-1 -1 -1 -1 -0 -1 -1 -1 -0 -0 -1 -1 -1 -1 1 3 2 0 -2 -1 -2 -2 2 -1 5 -6 9 -8 24 -21 -8 -5 -2 -4 -5 1 -6 10 -6 3 4 -1 -1 -2 1
-1 -1 -1 -1 -1 -1 -1 -1 -1 0 -1 -0 -1 -1 1 -7 -2 -1 -2 2 1 -1 7 -5 1 2 -16 29 -11 -8 21 10 -3 -12 -4 18 10 -6 -7 0 2 5 8 1 -1
-1 -1 -1 -1 -0 -1 -1 -1 -0 -0 -1 -0 -1 -0 10 -0 -2 -1 -2 -3 -2 -1 -7 -7 -3 -8 -13 -21 -4 15 -0 21 -16 17 -25 25 10 6 -5 -1 -3 1 -2 -2 -2
-2 -1 -1 -1 -1 0 -1 -0 -0 -0 -1 -1 -2 0 19 0 -0 -1 -1 -0 -1 -1 -7 -6 -5 3 2 -2 22 -38 30 -4 11 -19 10 5 -7 -3 -2 -7 6 0 -2 -3 -2
-1 -1 -2 -1 -1 -0 -0 -1 -0 -0 -1 -2 -1 -6 -4 -3 -1 -0 -2 -4 -2 -1 -8 -6 -6 7 2 -4 13 30 5 -1 5 -10 -13 5 -2 -5 1 10 6 -4 -0 0 1
-1 -1 -2 -1 -0 -1 -0 -1 -1 -9 -2 -1 11 -4 -1 0 -1 -1 -2 -1 1 -0 -4 -8 14 -7 29 -3 -10 -3 -4 -5 11 -14 17 -2 -2 -4 -3 8 1 5 -3 2 2
-1 -1 -1 -1 -1 -0 -1 -0 -1 -5 4 -3 -3 -3 -4 1 0 -0 -2 -2 -2 -2 -3 35 -16 6 -13 -13 -6 3 -3 27 4 -19 14 -4 -4 -3 -4 -2 -2 -5 5 3 5
-0 -1 -2 -0 -1 -1 -1 -2 -1 -1 -5 -2 -2 -3 -5 -4 2 -1 -5 -4 -2 -0 1 -1 26 5 -11 6 -3 -5 7 2 -1 -1 -15 -7 2 15 -1 -5 1 -2 -3 -4 -1
-1 -1 -2 0 -1 0 -0 -1 -1 -1 0 -4 -4 -0 -6 -3 8 -2 -7 2 6 8 12 -14 29 -13 -6 -2 2 18 -10 -13 -6 -0 23 -12 16 8 8 -3 -3 2 1 3 -3
-0 -0 -2 0 1 0 -3 -1 -1 1 11 -7 2 -4 1 10 3 -3 -2 -9 17 -3 9 -13 -2 -1 -4 -6 19 3 -10 2 -3 -7 6 -11 18 16 12 2 1 1 0 3 2
-1 0 -3 -0 -0 1 -0 -0 -0 2 14 -6 -4 -7 1 -5 -4 3 -3 -9 9 5 -12 28 -12 5 6 7 -9 -6 -4 -8 -6 -1 13 10 24 -6 3 4 6 1 2 4 1
-1 0 -2 -0 -2 0 -0 -1 6 11 -9 -5 -9 -4 -2 -5 3 -4 -4 -4 -2 0 -2 -8 -3 -7 -14 0 -6 -3 -2 1 14 13 -2 -7 -6 -35 5 -1 2 3 2 2 1
-1 -0 -1 -1 0 0 -0 -2 12 14 -14 -22 11 -1 -6 -2 11 -3 -0 3 -9 3 35 -2 25 -4 -15 -16 33 -18 30 20 -1 2 6 -10 21 13 -6 3 -6 -0 -2 0 -0
-1 -1 -1 -1 -1 -0 -0 -1 0 8 19 -7 8 2 5 -4 16 8 1 -0 -1 -24 28 13 4 -21 -17 2 -10 22 -3 3 18 5 16 6 -8 21 -3 -4 -3 -0 -1 -1 0
1 -0 -0 1 -0 1 -2 -13 33 -7 -4 -1 -2 -2 -3 -2 -3 -7 -8 -10 4 4 -12 9 8 0 -17 -4 -12 -3 -10 3 -10 -3 0 6 -2 14 3 -1 -1 -2 -1 -1 -2
0 -1 1 1 1 0 -9 2 4 -8 -8 6 -11 16 18 -7 -14 -21 10 6 11 -7 -7 6 8 -8 5 -9 -15 -32 21 18 6 34 2 -2 -2 97 3 3 -1 -2 -2 -3 -1
-1 35 -0 0 -1 -3 -3 18 -20 5 -9 -5 -19 3 -17 26 -10 19 25 18 -22 11 -4 -28 23 16 18 8 12 -11 47 -31 38 5 -39 9 13 22 -1 7 2 -1 -1 -2 -3
-3 10 -2 -2 3 6 -8 -9 -13 9 -1 8 -4 0 -11 -2 5 6 13 -7 -6 -5 12 20 -25 4 12 13 -12 -11 17 -2 -5 28 24 12 17 -2 -1 3 0 2 -2 -6 -2
-4 13 -9 -4 -5 -15 21 -3 3 -17 2 -13 18 -5 -11 28 -21 -10 10 -15 -1 16 -15 -6 -11 9 -2 -16 5 3 -12 0 -6 6 9 28 -19 2 5 4 -0 -1 -2 -0 -3
-3 21 4 16 -3 -5 2 14 -2 18 -13 -6 -6 6 -18 11 3 -13 26 -9 -3 -7 -7 -10 -3 5 55 4 -26 29 17 -7 -4 -4 9 -13 -0 33 7 1 -1 -2 -1 -0 1
-6 -6 -6 -5 -17 -7 3 -11 -6 16 13 -4 -1 -10 17 19 29 29 -16 1 -2 -9 -0 -3 -10 -5 1 -15 -6 -0 11 -12 -3 -10 -4 2 -8 2 -9 -6 -2 2 -0 -1 -3
-2 -1 -0 11 3 -2 11 -4 -12 41 -18 10 8 -11 31 -11 -2 -15 -7 0 13 -4 7 -0 6 -3 -13 30 2 -5 6 14 -6 -7 -4 12 17 -5 -5 -3 1 -1 -2 -4 -3
Height
3189 3188 3187 3187 3185 3184 3182 3180 3179 3178 3177 3176 3176 3177 3179 3181 3182 3183 3185 3187 3190 3192 3194 3194 3196 3197 3198 3201 3200 3198 3199 3198 3199 3199 3199 3200 3198 3195 3194 3193 3191 3190 3190 3186 3186
3188 3187 3186 3186 3184 3183 3181 3179 3178 3177 3176 3175 3175 3176 3179 3181 3183 3184 3187 3188 3191 3193 3195 3197 3202 3202 3203 3203 3203 3199 3200 3202 3202 3201 3201 3200 3199 3198 3196 3194 3190 3188 3187 3185 3186
3187 3187 3186 3185 3184 3182 3180 3179 3178 3177 3175 3174 3175 3176 3179 3182 3185 3185 3187 3189 3192 3194 3196 3198 3201 3204 3204 3203 3204 3203 3203 3204 3203 3202 3202 3201 3200 3199 3196 3197 3195 3191 3185 3184 3186
3187 3186 3185 3184 3183 3182 3180 3178 3178 3177 3175 3175 3175 3177 3180 3183 3190 3185 3187 3190 3193 3195 3197 3200 3204 3205 3204 3204 3204 3204 3204 3204 3204 3203 3202 3202 3201 3200 3198 3197 3195 3191 3187 3185 3186
3187 3186 3185 3184 3183 3181 3180 3178 3177 3177 3176 3176 3177 3178 3181 3184 3186 3185 3187 3190 3193 3196 3198 3204 3205 3205 3204 3205 3205 3204 3204 3204 3203 3203 3203 3202 3201 3200 3199 3197 3196 3193 3190 3187 3190
3186 3185 3184 3183 3182 3181 3179 3178 3177 3177 3177 3177 3178 3179 3182 3186 3184 3185 3187 3190 3194 3197 3201 3203 3205 3205 3206 3206 3205 3205 3205 3204 3203 3203 3203 3202 3201 3199 3200 3198 3196 3194 3193 3192 3196
3185 3184 3183 3182 3181 3180 3179 3178 3177 3177 3177 3177 3178 3180 3181 3183 3183 3185 3188 3191 3194 3197 3203 3203 3204 3205 3206 3205 3206 3204 3204 3204 3204 3203 3203 3201 3201 3200 3200 3200 3201 3201 3199 3197 3199
3183 3182 3181 3181 3180 3180 3179 3178 3177 3177 3177 3178 3179 3180 3184 3181 3182 3184 3188 3191 3194 3197 3199 3200 3202 3205 3205 3205 3204 3202 3201 3200 3205 3203 3202 3202 3202 3201 3200 3201 3202 3202 3201 3200 3201
3181 3180 3180 3179 3179 3179 3178 3178 3177 3177 3177 3178 3179 3180 3185 3181 3183 3184 3187 3191 3194 3197 3198 3200 3203 3205 3206 3202 3198 3200 3197 3201 3202 3204 3202 3201 3201 3200 3200 3200 3202 3202 3201 3201 3201
3179 3178 3178 3178 3178 3178 3178 3177 3177 3177 3178 3178 3179 3183 3181 3182 3182 3183 3186 3190 3193 3197 3200 3202 3204 3204 3203 3198 3196 3197 3200 3201 3201 3204 3203 3202 3202 3198 3198 3200 3201 3202 3202 3202 3202
3176 3176 3175 3175 3176 3176 3177 3177 3180 3179 3177 3179 3181 3181 3181 3181 3180 3182 3184 3189 3194 3198 3200 3202 3203 3200 3198 3198 3200 3201 3202 3201 3201 3202 3202 3202 3201 3198 3195 3197 3199 3201 3202 3203 3203
3173 3173 3173 3173 3174 3175 3175 3176 3177 3178 3178 3177 3177 3177 3178 3180 3182 3183 3184 3190 3193 3196 3198 3201 3200 3198 3198 3201 3202 3202 3201 3197 3199 3200 3200 3201 3200 3197 3194 3194 3194 3195 3199 3201 3203
3170 3170 3170 3171 3172 3173 3174 3175 3176 3176 3176 3177 3176 3177 3178 3179 3183 3184 3185 3190 3192 3195 3196 3196 3197 3197 3199 3200 3201 3198 3196 3196 3199 3198 3198 3197 3197 3197 3194 3193 3194 3193 3193 3195 3199
3167 3167 3168 3169 3172 3171 3173 3174 3175 3176 3177 3176 3175 3178 3177 3180 3184 3184 3185 3191 3192 3193 3194 3196 3195 3197 3198 3199 3198 3194 3195 3198 3197 3195 3189 3190 3198 3197 3196 3192 3194 3194 3194 3195 3195
3164 3165 3165 3167 3169 3170 3172 3173 3175 3176 3169 3173 3175 3174 3178 3182 3181 3183 3185 3188 3190 3191 3194 3193 3194 3195 3196 3196 3196 3194 3195 3195 3195 3193 3189 3185 3194 3190 3193 3192 3193 3193 3193 3193 3195
3161 3162 3163 3164 3166 3169 3170 3172 3175 3179 3166 3171 3172 3173 3177 3179 3181 3182 3183 3185 3188 3190 3191 3190 3192 3193 3194 3194 3194 3194 3193 3191 3188 3186 3183 3178 3181 3183 3195 3196 3194 3193 3192 3192 3192
3158 3159 3160 3162 3165 3166 3169 3172 3177 3169 3167 3170 3170 3173 3176 3178 3180 3181 3182 3184 3186 3188 3188 3189 3190 3191 3192 3192 3192 3191 3188 3180 3178 3174 3175 3179 3181 3193 3202 3196 3195 3193 3192 3191 3191
3155 3156 3157 3160 3162 3164 3168 3173 3171 3163 3165 3166 3169 3172 3174 3176 3178 3180 3182 3183 3183 3183 3180 3182 3183 3187 3188 3189 3186 3186 3181 3175 3171 3169 3172 3177 3180 3197 3194 3195 3194 3193 3193 3193 3192
3152 3153 3155 3158 3160 3163 3167 3170 3165 3164 3164 3167 3169 3171 3172 3174 3176 3178 3179 3180 3181 3182 3179 3176 3179 3184 3186 3186 3186 3183 3181 3177 3170 3168 3167 3176 3198 3193 3188 3192 3194 3193 3192 3192 3192
3150 3152 3153 3155 3158 3161 3165 3163 3164 3164 3165 3165 3167 3168 3169 3171 3174 3175 3176 3177 3179 3181 3180 3179 3180 3182 3184 3185 3185 3183 3182 3180 3179 3180 3165 3174 3176 3171 3184 3189 3191 3192 3191 3191 3191
3149 3152 3152 3154 3157 3160 3163 3163 3164 3165 3165 3167 3165 3164 3165 3168 3172 3172 3173 3176 3178 3179 3181 3180 3178 3183 3181 3180 3180 3182 3179 3180 3179 3179 3175 3172 3182 3176 3187 3188 3189 3189 3189 3189 3189
3149 3156 3151 3152 3157 3159 3161 3162 3162 3163 3164 3165 3164 3164 3164 3164 3169 3170 3170 3173 3176 3179 3180 3180 3177 3174 3174 3177 3178 3179 3180 3174 3171 3180 3180 3169 3180 3183 3188 3189 3187 3186 3186 3186 3186
3149 3152 3149 3151 3156 3158 3158 3159 3159 3162 3163 3164 3164 3164 3164 3165 3168 3169 3171 3171 3176 3178 3179 3179 3178 3171 3170 3173 3177 3177 3176 3177 3175 3172 3172 3169 3179 3183 3185 3185 3184 3185 3184 3184 3184
3147 3152 3150 3149 3152 3154 3155 3156 3157 3159 3160 3162 3162 3164 3166 3164 3167 3169 3170 3172 3174 3178 3177 3178 3175 3171 3166 3180 3178 3177 3176 3177 3178 3174 3171 3173 3181 3182 3183 3184 3184 3183 3182 3182 3180
3147 3150 3148 3150 3151 3152 3154 3154 3155 3156 3159 3160 3162 3162 3164 3164 3165 3167 3169 3172 3172 3173 3176 3178 3174 3170 3168 3174 3178 3175 3175 3177 3179 3179 3178 3177 3179 3179 3180 3182 3182 3182 3180 3179 3178
3143 3145 3147 3148 3148 3149 3150 3151 3152 3154 3156 3159 3160 3161 3161 3163 3163 3161 3166 3170 3172 3173 3175 3175 3174 3174 3173 3174 3176 3175 3176 3177 3177 3178 3179 3180 3181 3177 3176 3178 3180 3180 3178 3175 3172
3141 3143 3144 3146 3147 3148 3148 3150 3151 3152 3155 3156 3158 3160 3161 3160 3161 3164 3164 3168 3169 3172 3173 3174 3173 3173 3172 3171 3173 3174 3172 3172 3175 3176 3179 3178 3177 3175 3176 3178 3178 3176 3173 3169 3167